Find Starlink 5449

NORAD ID: 54780 Int'l Des: 2022-175 Owner: SPXS Country: US Constellation: starlink operational
LEOCIRCULAR

当前视图

正在加载3D地球...

About Starlink 5449

Starlink 5449 (NORAD 54780) is a starlink constellation satellite (v1.5) launched Dec 17, 2022 by SPXS of US. It operates in LEO, CIRCULAR orbit with a mass of 305.00 kg.

关于 Starlink 5449

正在加载描述...

即将过境

Passes for default location (London). Set your location on the main map for personalized predictions.

高度历史

Loading altitude history...

两行轨道根数

1 54780U 22175Y 26170.71794829 -.00000072 00000-0 13578-4 0 9992
2 54780 53.1599 290.8883 0001119 85.9436 274.1683 15.08833425195536
Epoch: Jun 19, 2026 • Age: 21 hours

当前状态

高度 539.8 km
速度 7.59 km/s
星下点 8.36°N, 27.92°W
发射日期 Dec 17, 2022
运行时间 3.5 years
类型 internet

技术详情

分类 Payload
质量 305.00 kg
干质量 290.00 kg
总质量 305.00 kg
长度 0.20 m
直径 2.80 m
跨度 9.00 m
形状 Box + pan
制造商 SPXS
平台类型 Starlink
阶段状态 In Orbit
所有者/国家 SPXS/US

Most Searched